{"data":{"norad_id":63031,"epoch":"2026-05-25T01:24:46.370592Z","epoch_age_seconds":73977,"freshness":"FRESH","line1":"1 63031U 25034C   26145.05887003  .00023123  00000+0  69330-3 0  9990","line2":"2 63031  53.1610 263.0862 0001201  79.1227 280.9911 15.34403194 70786","mean_motion":15.34403194,"eccentricity":0.0001201,"inclination_deg":53.161,"raan_deg":263.0862,"arg_perigee_deg":79.1227,"mean_anomaly_deg":280.9911,"bstar":0.0006933,"rev_number":7078,"period_min":93.847562728679,"perigee_km":461.87216320975,"apogee_km":463.51533075518,"semimajor_km":6840.8307469825,"source":"CELESTRAK","updated_at":"2026-05-25T13:38:19.865440Z"}}